TimeEST,TemperatureF,Dew PointF,Humidity,Sea Level PressureIn,VisibilityMPH,Wind Direction,Wind SpeedMPH,Gust SpeedMPH,PrecipitationIn,Events,Conditions,WindDirDegrees,DateUTC
12:56 AM,18.0,9.0,68,30.46,10.0,ESE,9.2,-,N/A,,Overcast,120,2013-01-25 05:56:00
1:56 AM,19.0,9.0,65,30.42,10.0,SE,10.4,-,N/A,,Overcast,130,2013-01-25 06:56:00
2:56 AM,19.0,9.0,65,30.42,10.0,ESE,9.2,-,N/A,,Overcast,120,2013-01-25 07:56:00
3:56 AM,19.0,8.1,62,30.37,10.0,ESE,13.8,-,N/A,,Overcast,110,2013-01-25 08:56:00
4:56 AM,19.0,9.0,65,30.33,10.0,SSE,11.5,-,N/A,,Overcast,150,2013-01-25 09:56:00
5:56 AM,19.0,9.0,65,30.28,10.0,SE,12.7,-,N/A,,Overcast,140,2013-01-25 10:56:00
6:56 AM,19.0,8.1,62,30.25,10.0,SE,13.8,-,N/A,,Overcast,130,2013-01-25 11:56:00
7:16 AM,19.4,8.6,63,30.19,4.0,SE,12.7,-,0.00,Snow,Light Snow,140,2013-01-25 12:16:00
7:20 AM,19.4,8.6,63,30.18,1.0,SE,12.7,-,0.00,Snow,Light Snow,130,2013-01-25 12:20:00
7:30 AM,17.6,10.4,73,30.18,0.8,SE,17.3,-,0.00,Snow,Light Snow,140,2013-01-25 12:30:00
7:42 AM,17.6,12.2,79,30.19,0.5,SE,12.7,-,0.02,Fog-Snow,Snow,140,2013-01-25 12:42:00
7:56 AM,17.1,14.0,88,30.24,0.5,SE,11.5,-,0.05,Fog-Snow,Snow,140,2013-01-25 12:56:00
8:56 AM,17.1,14.0,88,30.21,0.2,SE,11.5,-,0.10,Fog-Snow,Heavy Snow,130,2013-01-25 13:56:00
9:56 AM,17.1,14.0,88,30.18,0.2,SE,10.4,-,0.09,Fog-Snow,Heavy Snow,130,2013-01-25 14:56:00
10:35 AM,17.6,14.0,86,30.12,0.5,SE,10.4,-,0.04,Fog-Snow,Snow,130,2013-01-25 15:35:00
10:46 AM,17.6,14.0,86,30.11,1.0,SE,10.4,-,0.05,Snow,Light Snow,130,2013-01-25 15:46:00
10:56 AM,18.0,14.0,84,30.16,0.8,SE,10.4,-,0.05,Snow,Light Snow,140,2013-01-25 15:56:00
11:19 AM,17.6,14.0,86,30.11,1.2,SE,9.2,-,0.01,Snow,Light Snow,140,2013-01-25 16:19:00
11:36 AM,17.6,14.0,86,30.11,1.8,SE,6.9,-,0.01,Snow,Light Snow,140,2013-01-25 16:36:00
11:48 AM,17.6,14.0,86,30.10,2.0,SE,9.2,-,0.01,Snow,Light Snow,140,2013-01-25 16:48:00
11:56 AM,18.0,14.0,84,30.15,2.0,SE,8.1,-,0.01,Snow,Light Snow,140,2013-01-25 16:56:00
12:07 PM,17.6,14.0,86,30.09,4.0,SE,8.1,-,0.00,Snow,Light Snow,140,2013-01-25 17:07:00
12:56 PM,19.0,16.0,88,30.11,4.0,South,6.9,-,0.00,,Overcast,170,2013-01-25 17:56:00
1:43 PM,19.4,15.8,86,30.05,10.0,South,3.5,-,N/A,,Overcast,180,2013-01-25 18:43:00
1:56 PM,21.0,16.0,81,30.09,10.0,SW,6.9,-,N/A,,Overcast,230,2013-01-25 18:56:00
2:47 PM,21.2,15.8,80,30.03,10.0,SW,8.1,-,N/A,,Overcast,230,2013-01-25 19:47:00
2:56 PM,21.9,16.0,78,30.07,9.0,WSW,6.9,-,N/A,,Overcast,240,2013-01-25 19:56:00
3:56 PM,21.9,17.1,82,30.07,9.0,WSW,9.2,-,N/A,,Overcast,240,2013-01-25 20:56:00
4:56 PM,23.0,17.1,78,30.08,10.0,West,10.4,-,N/A,,Overcast,260,2013-01-25 21:56:00
5:56 PM,23.0,17.1,78,30.09,10.0,West,8.1,-,N/A,,Overcast,260,2013-01-25 22:56:00
6:03 PM,23.0,17.6,80,30.04,10.0,West,8.1,-,N/A,,Overcast,260,2013-01-25 23:03:00
6:14 PM,23.0,17.6,80,30.04,10.0,West,11.5,-,N/A,,Overcast,260,2013-01-25 23:14:00
6:56 PM,23.0,17.1,78,30.09,10.0,WSW,8.1,-,N/A,,Overcast,240,2013-01-25 23:56:00
7:56 PM,23.0,17.1,78,30.11,10.0,WSW,9.2,-,N/A,,Overcast,240,2013-01-26 00:56:00
8:56 PM,23.0,18.0,81,30.14,9.0,WSW,11.5,-,N/A,,Overcast,250,2013-01-26 01:56:00
9:56 PM,24.1,19.0,81,30.14,8.0,SW,5.8,-,N/A,,Overcast,220,2013-01-26 02:56:00
10:56 PM,24.1,19.0,81,30.13,8.0,SSW,9.2,-,N/A,,Overcast,210,2013-01-26 03:56:00
11:16 PM,24.8,19.4,80,30.08,8.0,SSW,8.1,-,N/A,,Overcast,210,2013-01-26 04:16:00
11:56 PM,24.1,19.0,81,30.13,7.0,SSW,11.5,-,N/A,,Overcast,210,2013-01-26 04:56:00